Hourly Data Report for February 07, 2015

All times are specified in Local Standard Time (LST). Add 1 hour to adjust for Daylight Saving Time where and when it is observed.

GERALDTON A
ONTARIO

49°46'58.090" N
86°55'50.050" W
348.40 m
6042716
71834
YGQ

Download Data

Hourly Data (February 2015)
Hourly Data Report for February 7, 2015
Temp Definition
°C
Dew Point Temp Definition
°C
Rel Hum Definition
%
Wind Dir Definition
10's deg

Wind Spd Definition
km/h
Visibility Definition
km
Stn Press Definition
kPa
Hmdx Definition


Wind Chill Definition


Weather Definition


TIME
00:00 -20.5 -24.4 71 4 7 24.1 97.54   -26 Cloudy
01:00 -20.5 -24.4 71 1 4 24.1 97.59   -24 Cloudy
02:00 -20.9 -23.7 78 5 4 6.4 97.62   -24 Snow
03:00 -21.3 -24.2 77 4 6 16.1 97.58   -27 Snow
04:00 -21.7 -24.6 77 5 7 24.1 97.55   -28 Snow
05:00 -21.5 -24.6 76 5 6 24.1 97.54   -27 Snow
06:00 -21.7 -25.2 73 6 9 24.1 97.57   -29 Mostly Cloudy
07:00 -22.5 -25.6 76 7 7 24.1 97.58   -29 Mostly Cloudy
08:00 -23.6 -26.4 78 6 11 24.1 97.61   -32 Mainly Clear
09:00 -23.9 -24.6 94 6 15 24.1 97.64   -34 Mostly Cloudy
10:00 -23.5 -27.1 72 7 19 24.1 97.63   -35 Cloudy
11:00 -22.9 -27.0 69 6 19 24.1 97.61   -34 Cloudy
12:00 -22.5 -26.9 67 7 17 24.1 97.55   -33 Cloudy
13:00 -22.0 -26.8 65 7 17 24.1 97.50   -32 Cloudy
14:00 -21.9 -26.8 64 7 22 24.1 97.42   -33 Snow
15:00 -21.9 -27.0 63 6 15 24.1 97.48   -31 Snow
16:00 -22.4 -26.4 70 5 22 1.2 97.49   -34 Snow
17:00 -22.6 -26.2 72 6 20 1.2 97.55   -34 Snow
18:00 -22.9 -26.6 72 6 19 1.6 97.61   -34 Snow
19:00 -23.3 -26.6 74 7 19 1.6 97.60   -34 Snow
20:00 -23.9 -27.5 72 6 26 3.2 97.57   -37 Snow
21:00 -24.4 -28.0 72 7 19 8.0 97.56   -36 Snow
22:00 -24.8 -28.6 71 7 20 12.9 97.61   -37 Snow
23:00 -25.2 -28.8 72 6 20 12.9 97.63   -37 Snow

Notes on Data Quality.

Legend

  • E = Estimated
  • M = Missing
  • NA = Not Available
  • ‡ = Partner data that is not subject to review by the National Climate Archives
Date modified: